Observations for Trim Patrick St
| Time | AQI | Temp °C | Hum % | Pres Pa | CO μg/m³ | H₂S μg/m³ | NO μg/m³ | NO₂ μg/m³ | O₃ μg/m³ | SO₂ μg/m³ | PM1 μg/m³ | PM2.5 μg/m³ | PM10 μg/m³ |
|---|---|---|---|---|---|---|---|---|---|---|---|---|---|
| Thursday 30 July 2026 | |||||||||||||
| 21:54 | 3 | 17.2 | 54 | 69,118 | 0.02 | 10.98 | 1.03 | 25.21 | 53.71 | 0.56 | 5.43 | 11.41 | 12.56 |
| 21:53 | 3 | 17.2 | 53 | 69,106 | 0.02 | 10.62 | 1.06 | 27.09 | 52.68 | 0.43 | 4.57 | 10.78 | 11.86 |
| 21:52 | 3 | 17.2 | 54 | 69,092 | 0 | 10.85 | 1.05 | 19.27 | 54.92 | 0.83 | 4.57 | 10.7 | 11.77 |
| 21:51 | 3 | 17.2 | 54 | 69,071 | 0 | 11.19 | 1.04 | 23.16 | 53.79 | 0.59 | 2.86 | 8.45 | 9.3 |
| 21:50 | 3 | 17.2 | 54 | 69,043 | 0 | 11.38 | 1.08 | 24.21 | 56.28 | 0.45 | 5.43 | 11.44 | 12.58 |
| 21:49 | 3 | 17.3 | 53 | 69,001 | 0 | 11.74 | 1.09 | 22.13 | 55.36 | 0.67 | 3.71 | 10.74 | 11.82 |
| 21:48 | 3 | 17.3 | 54 | 69,010 | 0 | 11.3 | 1.09 | 26.75 | 57.58 | 0.57 | 3.71 | 10.73 | 11.8 |
| 21:45 | 3 | 17.4 | 53 | 68,981 | 0 | 10.96 | 1.07 | 24.15 | 54.37 | 0.82 | 2 | 6.24 | 6.87 |
| 21:44 | 3 | 17.4 | 53 | 68,953 | 0 | 10.96 | 1.06 | 19.48 | 53.92 | 1.03 | 3.71 | 8.48 | 9.33 |
| 21:41 | 3 | 17.5 | 53 | 68,904 | 0 | 11.72 | 1.1 | 26.01 | 53.03 | 0.99 | 2 | 6.22 | 6.85 |
| 21:40 | 3 | 17.5 | 52 | 68,882 | 0 | 11.14 | 1.1 | 26.77 | 55.76 | 0.51 | 2 | 6.26 | 6.89 |
| 21:39 | 3 | 17.5 | 52 | 68,880 | 0 | 10.62 | 1.13 | 24.4 | 52.08 | 1.07 | 2 | 7.04 | 7.74 |
| 21:38 | 3 | 17.6 | 52 | 68,882 | 0 | 11.27 | 1.12 | 20.51 | 55.95 | 1.52 | 2 | 7.01 | 7.72 |
| 21:37 | 3 | 17.6 | 51 | 68,884 | 0 | 11.35 | 1.15 | 22.96 | 53.31 | 0.93 | 2 | 7.09 | 7.8 |
| 21:36 | 3 | 17.6 | 53 | 68,857 | 0 | 11.22 | 1.1 | 25.88 | 55.04 | 0.94 | 2 | 7.75 | 8.53 |
| 21:35 | 3 | 17.7 | 52 | 68,849 | 0 | 12.14 | 1.1 | 23.36 | 54.05 | 1.27 | 2.86 | 7.04 | 7.74 |
| 21:34 | 3 | 17.7 | 53 | 68,835 | 0 | 11.96 | 1.05 | 29.05 | 53.98 | 0.86 | 2 | 7.74 | 8.52 |
| 21:33 | 3 | 17.8 | 52 | 68,821 | 0 | 12.32 | 1.06 | 37.35 | 49.82 | 1.63 | 2 | 7.07 | 7.77 |
| 21:32 | 3 | 17.8 | 52 | 68,800 | 0 | 11.85 | 1.05 | 27.74 | 50.5 | 1.45 | 2.86 | 7.83 | 8.61 |
| 21:31 | 3 | 17.8 | 52 | 68,806 | 0 | 12.95 | 1.04 | 24.13 | 53.92 | 1.75 | 2 | 6.29 | 6.92 |